Waukegan, IL

4:51 PM CDT on September 26, 2016 (GMT -0500)
Waukegan Regional

Weather History for KUGN - November, 2011

Change the Weather History Date:

Thursday, November 10, 2011

  Actual Average Record
Temperature  
Mean Temperature 35 °F -  
Max Temperature 37 °F 50 °F 66 °F (2012)
Min Temperature 33 °F 34 °F 22 °F (2008)
Degree Days  
Heating Degree Days 30 23  
Month to date heating degree days 210  
Since 1 July heating degree days 816  
Cooling Degree Days 0 0  
Month to date cooling degree days 0  
Year to date cooling degree days 564  
Moisture  
Dew Point 29 °F    
Average Humidity 78    
Maximum Humidity 92    
Minimum Humidity 70    
Precipitation  
Precipitation 0.01 in 0.09 in 0.90 in (2006)
Month to date precipitation 1.03  
Year to date precipitation 31.86  
Sea Level Pressure  
Sea Level Pressure 29.96 in    
Wind  
Wind Speed 6 mph (West)    
Max Wind Speed 12 mph    
Max Gust Speed 20 mph    
Visibility 9 miles    
Events Snow    
T = Trace of Precipitation, MM = Missing Value Source: NWS Daily Summary

Daily Weather History Graph

Daily Weather History Graph

Search for Another Location

Airport or City:

Trip Planner

Search our weather history database for the weather conditions in past years. The results will help you decide how hot, cold, wet, or windy it might be!

Date:

Astronomy

Nov. 10, 2011 Rise Set
Actual Time 6:35 AM CST 4:34 PM CST
Civil Twilight 6:05 AM CST 5:04 PM CST
Nautical Twilight 5:32 AM CST 5:37 PM CST
Astronomical Twilight 4:59 AM CST 6:10 PM CST
Moon 4:20 PM CST (11/10) 6:28 AM CST (11/10)
Length of Visible Light 10h 58m
Length of Day
9h 58m
Full, 100% of the Moon is Illuminated
Nov 10
Full
Nov 10
Full
Nov 18
Last Quarter
Nov 25
New
Dec 2
First Quarter

Hourly Weather History & Observations

Time (CST) Temp. Windchill Dew Point Humidity Pressure Visibility Wind Dir Wind Speed Gust Speed Precip Events Conditions
12:52 AM 36.0 °F 32.1 °F 28.9 °F 76% 29.95 in 10.0 mi Variable 4.6 mph - N/A   Clear
1:52 AM 35.1 °F 32.2 °F 28.9 °F 78% 29.95 in 10.0 mi WSW 3.5 mph - N/A   Clear
2:52 AM 34.0 °F 29.8 °F 28.0 °F 79% 29.94 in 10.0 mi Variable 4.6 mph - N/A   Clear
4:52 AM 33.1 °F 26.9 °F 26.1 °F 75% 29.94 in 10.0 mi Variable 6.9 mph - N/A   Clear
6:52 AM 33.1 °F 26.9 °F 26.1 °F 75% 29.95 in 10.0 mi Variable 6.9 mph - N/A   Mostly Cloudy
7:52 AM 33.1 °F 26.9 °F 28.0 °F 82% 29.96 in 2.5 mi Variable 6.9 mph - 0.00 in Snow Snow
7:59 AM 33.8 °F 28.6 °F 28.4 °F 81% 29.93 in 9.0 mi WSW 5.8 mph - 0.00 in   Overcast
8:52 AM 33.1 °F 28.7 °F 30.9 °F 92% 29.97 in 4.0 mi Variable 4.6 mph - 0.00 in Snow Light Snow
8:56 AM 33.8 °F 29.6 °F 30.2 °F 87% 29.94 in 1.2 mi Variable 4.6 mph - 0.00 in Snow Light Snow
8:58 AM 33.8 °F 28.6 °F 30.2 °F 87% 29.94 in 3.0 mi SW 5.8 mph - 0.00 in Snow Light Snow
9:06 AM 33.8 °F 28.6 °F 30.2 °F 87% 29.94 in 9.0 mi WSW 5.8 mph - 0.00 in   Mostly Cloudy
9:52 AM 36.0 °F 29.6 °F 28.9 °F 76% 29.96 in 10.0 mi West 8.1 mph 17.3 mph 0.00 in   Mostly Cloudy
10:52 AM 37.0 °F 31.6 °F 30.0 °F 76% 29.96 in 10.0 mi Variable 6.9 mph 16.1 mph N/A   Overcast
11:30 AM 37.4 °F 30.8 °F 30.2 °F 75% 29.93 in 10.0 mi West 9.2 mph - 0.00 in   Overcast
11:41 AM 37.4 °F 31.4 °F 30.2 °F 75% 29.93 in 8.0 mi West 8.1 mph - 0.00 in Snow Light Snow
11:52 AM 37.9 °F 30.5 °F 30.9 °F 76% 29.95 in 9.0 mi West 11.5 mph 17.3 mph 0.00 in   Overcast
12:00 PM 37.4 °F 30.8 °F 30.2 °F 75% 29.92 in 10.0 mi West 9.2 mph 17.3 mph N/A   Overcast
12:11 PM 37.4 °F 29.8 °F 30.2 °F 75% 29.92 in 10.0 mi West 11.5 mph 18.4 mph N/A   Overcast
12:52 PM 37.0 °F 31.0 °F 30.0 °F 76% 29.95 in 6.0 mi West 8.1 mph 17.3 mph 0.01 in Snow Light Snow
1:37 PM 35.6 °F 28.6 °F 32.0 °F 87% 29.92 in 5.0 mi WNW 9.2 mph - 0.00 in Snow Light Snow
1:52 PM 37.0 °F 31.6 °F 33.1 °F 86% 29.95 in 9.0 mi West 6.9 mph - 0.00 in   Overcast
2:52 PM 37.9 °F 30.9 °F 30.9 °F 76% 29.96 in 10.0 mi West 10.4 mph 19.6 mph N/A   Overcast
3:52 PM 37.0 °F 29.8 °F 30.9 °F 79% 29.99 in 10.0 mi WNW 10.4 mph 18.4 mph 0.00 in   Overcast
4:04 PM 37.4 °F 30.3 °F 30.2 °F 75% 29.95 in 10.0 mi West 10.4 mph 18.4 mph N/A   Overcast
4:31 PM 37.4 °F 31.4 °F 30.2 °F 75% 29.96 in 10.0 mi West 8.1 mph - N/A   Overcast
4:52 PM 37.0 °F 31.0 °F 30.0 °F 76% 30.00 in 10.0 mi WNW 8.1 mph 16.1 mph N/A   Overcast
5:52 PM 37.0 °F 29.3 °F 28.0 °F 70% 30.01 in 10.0 mi West 11.5 mph 16.1 mph N/A   Mostly Cloudy
6:52 PM 37.0 °F 31.0 °F 28.0 °F 70% 30.01 in 10.0 mi West 8.1 mph - N/A   Overcast
7:52 PM 36.0 °F 31.1 °F 28.0 °F 73% 30.01 in 10.0 mi Variable 5.8 mph - N/A   Scattered Clouds
8:52 PM 35.1 °F 30.1 °F 28.0 °F 76% 30.03 in 10.0 mi West 5.8 mph - N/A   Clear
9:52 PM 34.0 °F 31.0 °F 28.0 °F 79% 30.03 in 10.0 mi Variable 3.5 mph - N/A   Mostly Cloudy
10:52 PM 33.1 °F 30.0 °F 28.0 °F 82% 30.02 in 10.0 mi West 3.5 mph - N/A   Clear
11:52 PM 33.1 °F - 28.0 °F 82% 30.02 in 10.0 mi Calm Calm - N/A   Overcast